sat.trackr.live / text

‹ back to catalog

STARLINK-36640

NORAD 67600 · 2026-018M

PAYLOAD ACTIVE UNKNOWN

§ Identity

Operator
Country
US
Launch date
2026-01-29
Launch site
AFWTR
Launch vehicle
Mass (kg)
RCS (m²)

Purposes: comms

External: N2YO · Heavens-Above · Gunter

§ Orbital elements

Epoch: 2026-05-25T03:57:48.845088Z

Period
93.91 min
Inclination
97.2851°
Eccentricity
0.0000961
Mean motion
15.33453426 rev/d
Perigee alt
464.9 km
Apogee alt
466.2 km
Semi-major
6,843.7 km
B*
6.7439e-4
RAAN
210.2865°
Arg perigee
109.1818°
Mean anomaly
250.9529°
Rev number
1,905

§ Raw data

STARLINK-366401 67600U 26018M   26145.16514867  .00021765  00000+0  67439-3 0  99942 67600  97.2851 210.2865 0000961 109.1818 250.9529 15.33453426 19054

JSON: /api/v1/satellites/67600 · /tle

For live sub-satellite position, see the globe view (requires WebGL).

§ Visibility from observer

Set your observer location to see the next 7 days of passes ≥ 10°. The values pass through the URL so the page stays shareable.

No JS? Fill the form by hand. The geolocation button needs JavaScript.